Location: Chin
(49.7667°N, 112.4500°W)
Time: 10:47:07
(UTC+00:00)

Envisat - Pass Details

Date: 04 December 2021
Orbit: 764 x 766 km, 98.2° (Epoch: 23 January)

Event Time Altitude Azimuth Distance (km) Brightness Sun altitude
Rises 12:11:23 0° 18° (NNE) 3,246 6.4 -27.8°
Reaches altitude 10° 12:13:46 10° 23° (NNE) 2,315 5.7 -27.4°
Maximum altitude 12:18:44 50° 99° (E) 977 3.8 -26.6°
Drops below altitude 10° 12:23:38 10° 175° (S) 2,297 5.6 -25.8°
Sets 12:26:00 0° 180° (S) 3,218 6.3 -25.4°
